Location: Chris' Backyard Observatory
(47.3045°N, 122.2839°W)
Time: 03:20:06
(UTC-07:00)

Daily predictions for brighter satellites

Satellite Brightness Start Highest point End
(mag) Time Altitude Azimuth Time Altitude Azimuth Time Altitude Azimuth
Coronas F rocket 3.9 00:04:13 13° ENE 00:04:13 13° ENE 00:05:03 10° ENE
ALOS 2 3.1 00:07:31 31° SE 00:09:15 51° ENE 00:13:31 10° N
Cosmos 1689 Rocket 3.5 00:09:16 29° E 00:09:57 32° ENE 00:12:57 10° N
Cosmos 374 Rocket 4.4 00:06:10 10° NW 00:10:01 79° SW 00:11:40 38° SSE
Okean 1-7 3.1 00:06:50 10° NNW 00:11:05 66° W 00:12:38 37° SSW
Cosmos 1603 3.8 00:07:05 10° NNW 00:12:47 77° ENE 00:15:46 30° SE
ATLAS 3B R/B 3.2 00:10:00 10° NW 00:16:36 45° WSW 00:19:45 27° S
Cosmos 2237 Rocket 4.2 00:24:16 10° WNW 00:27:43 17° W 00:30:43 11° SW
Cosmos 1892 2.9 00:27:25 47° SE 00:28:02 53° E 00:31:45 10° NNE
USA 238 DEB 3.7 00:22:22 10° NW 00:29:23 72° SW 00:33:10 30° SSE
USA 238 3.7 00:22:28 10° NW 00:29:29 73° SW 00:33:17 29° SSE
Cosmos 2251 Rocket 3.5 00:25:55 10° NNW 00:31:16 79° WSW 00:33:26 37° S
Cosmos 2084 Rocket 3.2 00:34:00 53° SSE 00:34:18 55° SE 00:38:02 10° NE
Cosmos 1674 Rocket 3.7 00:34:16 10° N 00:38:42 67° E 00:40:06 42° SSE
Cosmos 921 Rocket 3.6 00:38:49 36° ESE 00:39:26 38° ESE 00:43:22 10° NE
Cosmos 44 3.8 00:38:48 37° SSE 00:40:26 49° ESE 00:45:41 10° NE
NOSS 2-3 (E) 4.1 00:37:15 21° SW 00:40:40 81° NW 00:46:39 10° NE
SL-08 ROCKET BODY 4.4 00:39:19 31° S 00:42:31 85° W 00:48:42 10° N
H-2A R/B 4.4 00:40:13 10° WSW 00:42:39 13° W 00:45:06 10° WNW
Cosmos 389 Rocket 4.0 00:39:49 10° NW 00:42:49 25° W 00:43:29 24° WSW
CZ-4B R/B 1.3 00:44:39 67° SSW 00:45:02 80° WSW 00:48:27 10° NNW
Cosmos 1238 Rocket 3.4 00:42:28 10° N 00:46:16 39° ENE 00:47:00 35° ESE
Lacrosse 4 Rocket 3.3 00:43:41 10° WNW 00:46:47 19° WSW 00:47:34 18° WSW
SeaSat 1 3.0 00:46:00 34° SSW 00:47:30 44° WSW 00:52:14 10° NW
Cosmos 494 Rocket 3.9 00:42:52 10° NNW 00:48:10 81° WSW 00:50:14 38° SSE
Cosmos 1825 3.8 00:48:13 21° ESE 00:48:46 22° E 00:51:46 10° NE
CENTAUR R/B 4.5 00:42:56 10° NW 00:49:39 35° NNE 00:56:55 10° E
Cosmos 1975 Rocket 4.4 00:46:05 10° N 00:50:00 30° ENE 00:51:47 23° ESE
Nadezhda 3 Rocket 4.0 00:44:21 10° N 00:50:37 80° E 00:53:39 33° SSE
Cosmos 1356 Rocket 3.4 00:50:10 51° SSE 00:51:00 67° E 00:55:04 10° NNE
Cosmos 2074 Rocket 4.3 00:48:52 26° SSW 00:52:29 63° WNW 00:58:46 10° N
Meteor 2-3 Rocket 4.1 00:49:45 27° SSW 00:52:54 62° WNW 00:58:33 10° N
Cosmos 1610 Rocket 4.4 00:50:16 32° S 00:53:18 86° W 00:59:29 10° N
Cosmos 1867 4.1 00:48:01 10° NNW 00:53:27 56° NE 00:57:23 18° ESE
Cosmos 1607 3.9 00:47:40 10° NW 00:53:49 72° WSW 00:56:39 33° SSE
ASTEX 1 3.4 00:49:41 10° N 00:54:35 78° W 00:56:27 38° SSW
USA 234 4.2 00:49:49 10° E 00:56:01 47° NNE 01:02:13 10° NW
CZ-2C R/B 4.1 00:53:46 21° SE 00:57:11 43° ENE 01:02:24 10° N
Cosmos 1908 Rocket 4.0 00:59:02 40° SE 01:00:05 50° E 01:04:17 10° NNE
Meteor 1-10 Rocket 4.4 00:55:03 10° NNW 01:00:59 73° W 01:03:36 35° S
GEOS 3 Rocket 3.8 01:00:39 37° S 01:02:20 52° SW 01:07:25 10° NW
NOSS 3-2 (C) 4.0 00:55:36 10° NW 01:03:00 79° NE 01:09:36 16° SE
Cosmos 2263 Rocket 3.0 01:09:41 30° SE 01:11:28 37° ESE 01:16:39 10° NE
Okean 3 3.9 01:07:58 10° N 01:12:14 57° ENE 01:13:36 38° SE
Meteor 2-10 Rocket 4.3 01:07:11 10° NNW 01:12:32 47° W 01:14:53 30° SSW
Cosmos 1782 3.1 01:10:47 10° NNW 01:14:41 53° W 01:15:24 45° SW
Landsat 5 4.2 01:14:41 37° SW 01:15:52 47° W 01:20:17 10° NNW
MOS 1-B Rocket 3.8 01:15:53 35° S 01:18:24 80° WSW 01:24:03 10° NNW
H-2A R/B 3.3 01:16:41 10° N 01:20:42 44° WNW 01:22:27 29° WSW
SL-16 R/B 4.3 01:19:21 10° WNW 01:21:53 13° W 01:23:49 11° WSW
Cosmos 1340 Rocket 3.8 01:21:49 29° WSW 01:23:02 36° WNW 01:26:43 10° N
Cosmos 2154 Rocket 4.1 01:20:20 31° SSW 01:23:30 73° W 01:29:48 10° N
Cosmos 44 Rocket 4.5 01:19:53 12° WSW 01:24:27 43° NW 01:29:29 10° NNE
NOSS 3-2 (A) 3.9 01:17:53 10° NW 01:25:16 73° SW 01:30:20 25° SSE
BREEZE-M DEB (TANK) 4.5 01:23:17 10° WSW 01:27:41 88° NNW 01:45:09 10° ENE
CZ-4C R/B 2.9 01:21:00 10° NW 01:27:55 61° WSW 01:32:00 29° SSE
NOSS 3-4 (A) 3.7 01:25:32 33° S 01:28:15 57° ESE 01:34:42 10° NE
NOSS 3-4 (C) 3.7 01:25:39 33° S 01:28:21 56° ESE 01:34:47 10° NE
CZ-2C R/B 2.5 01:24:33 10° NNE 01:29:49 79° ESE 01:31:50 38° S
Cosmos 1733 Rocket 4.1 01:28:31 27° WSW 01:30:14 38° WNW 01:34:25 10° N
Helios 1A Rocket 3.3 01:29:03 10° N 01:33:11 58° WNW 01:34:29 39° SW
COSMOS 2406 4.3 01:29:29 10° NNW 01:35:00 43° NE 01:40:28 10° SE
Coronas F rocket 3.3 01:35:19 21° WNW 01:35:19 21° WNW 01:37:24 10° NNW
Sich 1 Rocket 4.0 01:33:58 37° SW 01:35:29 55° WNW 01:39:58 10° N
Cosmos 1378 Rocket 3.8 01:35:01 10° NNW 01:39:18 57° W 01:40:24 43° SW
Cosmos 1606 3.4 01:40:53 10° NNW 01:44:32 40° W 01:45:06 38° WSW
Cosmos 1943 3.5 01:39:14 10° NW 01:44:42 50° WSW 01:46:41 35° SSW
ALOS 2 4.4 01:44:54 17° WSW 01:45:53 18° W 01:48:56 10° NW
RESURS DK-1 2.9 01:45:42 38° SE 01:46:28 43° ESE 01:50:25 10° NE
Abrixas rocket 3.7 01:50:30 27° ESE 01:50:30 27° ESE 01:52:26 10° E
Cosmos 1371 Rocket 4.4 01:47:27 34° SSE 01:49:32 53° ESE 01:54:45 10° NNE
Cosmos 407 Rocket 4.4 01:45:17 10° NNW 01:50:15 46° ENE 01:54:24 15° SE
Cosmos 2056 Rocket 4.3 01:48:29 29° SSE 01:50:31 40° ESE 01:55:24 10° NE
Meteor 2-13 Rocket 4.4 01:51:32 32° SSW 01:54:32 78° W 02:00:43 10° N
Meteor 1-27 Rocket 4.3 01:49:13 10° NNW 01:54:45 45° W 01:57:05 30° SW
SL-27 R/B 3.9 01:57:20 10° N 02:00:44 35° ENE 02:02:55 18° ESE
Cosmos 1959 Rocket 4.5 01:57:51 32° S 02:01:01 90° SE 02:07:17 10° N
Cosmos 1862 4.0 02:01:36 34° WSW 02:02:44 43° WNW 02:06:36 10° N
SL-08 R/B 4.5 01:59:43 31° S 02:02:54 89° E 02:09:17 10° N
Geosat 4.4 01:59:47 10° NNE 02:04:45 59° NW 02:07:32 25° SW
Cosmos 1408 3.2 02:04:33 38° WSW 02:05:25 46° WNW 02:09:05 10° N
PSLV R/B 4.1 02:06:08 43° SSW 02:07:05 55° W 02:11:06 10° NNW
SL-8 Rocket 4.1 02:04:42 30° SSW 02:07:59 70° W 02:14:20 10° N
Cosmos 1782 Rocket 4.0 02:07:28 35° SW 02:08:57 52° WNW 02:13:17 10° N
Okean 2 Rocket 3.4 02:09:50 36° SW 02:11:27 59° WNW 02:15:56 10° N
Meteor 1-14 Rocket 4.4 02:08:57 30° S 02:12:01 76° E 02:17:53 10° NNE
Cosmos 1339 Rocket 4.4 02:05:53 10° N 02:12:01 83° E 02:15:40 26° SSE
Meteor 2-8 Rocket 4.4 02:08:06 10° N 02:14:12 87° W 02:17:43 27° S
Iridium 4 Rocket 3.5 02:12:37 10° N 02:17:20 71° E 02:19:59 28° SSE
ERS-2 4.4 02:15:49 10° NE 02:18:20 17° E 02:20:07 13° SE
Cosmos 1184 Rocket 2.8 02:18:50 55° SW 02:19:25 72° WNW 02:22:47 10° N
Cosmos 2218 Rocket 4.1 02:16:45 29° SSW 02:20:07 68° W 02:26:29 10° N
Cosmos 1825 3.5 02:23:09 24° WSW 02:24:16 29° WNW 02:27:38 10° NNW
Cosmos 1975 Rocket 4.3 02:24:04 10° NNW 02:27:46 27° W 02:28:55 24° WSW
Cosmos 1300 Rocket 4.5 02:27:55 23° SSE 02:30:11 41° E 02:34:18 10° NNE
Cosmos 2366 rocket 4.1 02:28:47 27° SSW 02:32:10 63° WNW 02:38:22 10° N
Cosmos 1812 3.0 02:29:11 10° N 02:33:05 66° E 02:34:58 28° SSE
Meteor 1-18 Rocket 4.2 02:27:42 10° NNW 02:33:23 84° W 02:36:58 24° S
Cosmos 1624 Rocket 4.0 02:31:55 30° SSW 02:34:32 82° WNW 02:39:50 10° NNE
USA 161 4.5 02:34:09 10° E 02:35:47 14° ENE 02:37:27 10° NNE
CZ-2C R/B 4.2 02:34:50 24° SW 02:37:06 33° W 02:42:06 10° NNW
USA 234 3.2 02:32:12 10° SE 02:38:45 84° SW 02:45:21 10° NW
Cosmos 1536 Rocket 3.7 02:35:35 10° NNW 02:39:55 61° W 02:41:45 33° SSW
Cosmos 1242 Rocket 3.1 02:37:15 10° NNW 02:40:32 38° W 02:41:06 35° WSW
CENTAUR R/B 3.1 02:33:36 10° NW 02:41:22 89° NE 02:49:39 10° SE
Gbstr 26 Del rocket 3.8 02:42:50 27° SSE 02:43:29 29° SE 02:46:49 10° E
Cosmos 909 Rocket 4.3 02:40:30 25° SSW 02:44:38 89° SE 02:52:23 10° NE
Meteor 1-20 Rocket 4.3 02:45:26 24° S 02:49:05 78° E 02:54:52 10° NNE
Cosmos 1844 Rocket 3.2 02:48:15 23° S 02:51:40 52° ESE 02:57:10 10° NE
ARIANE 5 R/B 4.3 02:49:49 10° NE 02:53:46 23° E 02:57:42 10° SE
Cosmos 2263 Rocket 3.1 02:51:21 17° WSW 02:55:22 41° NW 03:00:44 10° NNE
Cosmos 1452 Rocket 3.7 02:53:05 24° S 02:56:13 65° ESE 03:01:26 10° NNE
IRS-P3 4.1 02:54:13 10° NNE 02:59:36 82° ESE 03:03:05 23° S
Resurs 1-4 Rocket 4.1 02:59:12 10° NE 03:03:19 22° E 03:07:25 10° SE
Meteor 1-11 Rocket 4.5 02:58:29 15° SSE 03:03:19 52° E 03:09:06 10° NNE
Meteor 1-13 Rocket 4.4 02:57:46 10° N 03:03:29 80° ENE 03:08:55 12° SSE
CBERS-1 4.3 02:59:06 10° NNE 03:04:14 66° ESE 03:07:50 20° S
Okean 1 3.4 03:00:27 10° NNW 03:04:25 62° W 03:06:26 27° SSW
PSLV R/B 3.9 03:00:31 10° N 03:04:36 50° WNW 03:06:46 25° SW
Cosmos 1844 4.3 03:02:30 19° S 03:06:21 51° ESE 03:11:56 10° NE
SL-24 DEB 4.2 03:02:31 10° N 03:07:11 82° W 03:10:08 23° S
ATLAS 5 CENTAUR R/B 2.7 03:03:36 10° NW 03:09:27 68° NE 03:15:45 10° SE
COSMOS 2487 2.9 03:05:54 10° NNW 03:09:31 62° ENE 03:13:06 10° SSE
Cosmos 1633 4.2 03:08:58 12° SSE 03:11:50 29° E 03:15:02 10° NNE
Cosmos 1140 Rocket 3.4 03:09:07 10° NNW 03:14:17 89° ENE 03:19:25 10° SSE
ADEOS 4.0 03:09:23 10° NNE 03:14:33 57° E 03:18:46 15° S
Okean 1-7 Rocket 3.7 03:10:21 10° NNW 03:14:54 64° W 03:17:54 21° S
Okean 1 Rocket 3.1 03:12:42 24° SSW 03:15:22 77° W 03:19:53 10° N
Cosmos 1934 Rocket 4.0 03:13:45 16° S 03:18:46 81° E 03:24:56 10° N
Cosmos 2278 Rocket 3.0 03:14:34 15° S 03:18:56 44° ESE 03:24:17 10° NE
COSMOS 2406 3.9 03:14:03 10° NW 03:19:14 35° WSW 03:22:34 19° SSW
RESURS DK-1 4.1 03:21:37 11° W 03:24:43 24° NW 03:28:08 10° N
NOSS 2-2 (D) 4.1 03:23:34 20° S 03:26:14 51° ESE 03:31:00 10° NE
Abrixas rocket 2.3 03:23:27 14° W 03:26:16 80° N 03:29:38 10° ENE
Cosmos 1602 3.8 03:24:15 20° S 03:26:53 77° E 03:30:44 10° NNE
Okean O Rocket 4.2 03:27:16 10° ENE 03:29:23 13° E 03:31:30 10° ESE
Cosmos 1025 Rocket 3.0 03:25:35 10° N 03:29:54 90° NNE 03:33:58 12° S
Timation 2 Rocket 4.1 03:24:37 10° NNW 03:30:51 76° ENE 03:36:51 10° SE
Cosmos 2082 Rocket 3.3 03:28:44 10° NNW 03:34:18 48° NE 03:39:48 10° SE
Cosmos 1850 Rocket 4.0 03:29:38 10° NNW 03:34:54 80° WSW 03:40:10 10° SSE
SL-27 R/B 4.2 03:33:11 10° NW 03:35:48 19° W 03:36:39 17° WSW
Cosmos 1741 Rocket 4.0 03:32:42 10° NNW 03:38:00 79° WSW 03:43:15 10° SSE
Cosmos 1455 Rocket 4.3 03:34:11 10° SSE 03:38:20 39° E 03:42:28 10° NNE
GP-B 3.7 03:34:41 10° NNW 03:38:53 42° W 03:41:53 18° SW
Cosmos 1315 Rocket 4.4 03:35:29 10° SSE 03:39:05 31° E 03:42:41 10° NNE
NOSS 2-2 (C) 3.7 03:37:37 19° SSW 03:40:37 69° SE 03:45:34 10° NE
Meteor 2-14 Rocket 4.4 03:38:45 14° SSW 03:44:02 79° W 03:50:09 10° N
SL-08 R/B 4.1 03:41:17 17° SSW 03:44:34 35° W 03:49:03 10° NNW
Spot 4 Rocket 4.1 03:39:31 10° NNE 03:44:43 87° ESE 03:49:22 13° SSW
Meteor 2-4 Rocket 3.6 03:41:43 10° NNW 03:47:10 86° W 03:52:30 10° S
NPP 4.2 03:45:36 10° N 03:50:44 46° WNW 03:55:08 14° SW
ERS-2 2.9 03:48:48 10° N 03:52:18 39° WNW 03:54:58 15° SW
AQUA 4.4 03:50:36 10° N 03:55:06 44° WNW 03:58:58 14° SW
Cosmos 1605 Rocket 4.0 03:50:58 11° SSW 03:56:52 76° W 04:03:12 10° N
Cosmos 2123 Rocket 4.3 03:52:04 10° NNW 03:58:12 53° W 04:04:18 10° SSW
SL-16 R/B 2.5 03:52:38 10° SSE 03:58:53 80° WSW 04:05:09 10° NNW
BREEZE-M DEB (TANK) 4.2 03:58:56 10° SSE 03:59:40 11° SE 04:00:25 10° SE
UNKNOWN OBJECT B 4.0 03:56:01 10° NNE 03:59:56 43° E 04:03:50 10° S
Okean 2 3.3 03:56:33 10° N 04:00:41 83° W 04:04:47 10° S
BREEZE-M DEB (TANK) 4.3 03:59:17 10° WNW 04:04:01 87° SSW 04:25:36 10° ESE
Cosmos 1544 Rocket 3.5 03:59:42 10° S 04:04:04 84° W 04:08:29 10° N
IRS-1D 3.5 03:59:11 10° NNE 04:04:18 85° ESE 04:09:18 10° SSW
NOSS 2-2 (E) 3.9 04:01:58 13° SW 04:05:48 71° NW 04:11:03 10° NE
USA 161 2.5 04:03:59 15° SSW 04:05:55 29° W 04:08:35 10° NNW
OPS 6432 4.2 04:03:19 15° SW 04:05:57 90° ENE 04:09:05 10° NE
Cosmos 1536 3.1 04:02:31 13° SSW 04:06:01 54° WNW 04:10:01 10° N
CZ-2D R/B 2.4 04:01:06 10° NNE 04:06:34 73° ESE 04:12:02 10° S
MTI 4.1 04:03:41 10° SSE 04:06:58 73° ENE 04:10:16 10° N
Cosmos 614 Rocket 4.2 04:03:13 10° NNW 04:08:12 49° WSW 04:13:07 10° S
APEX 4.5 04:05:41 10° SSE 04:08:17 27° ESE 04:11:20 10° NE
Cosmos 1833 Rocket 3.0 04:08:31 10° NNW 04:14:09 72° ENE 04:19:45 10° SE
BREEZE-M DEB (TANK) 2.7 04:12:47 10° W 04:19:07 63° N 04:21:36 10° E
SME Rocket 3.1 04:16:31 10° S 04:20:12 55° WSW 04:24:39 10° NNW
USA 234 4.1 04:17:01 10° S 04:22:23 27° SW 04:27:46 10° WNW
EO 1 Del DPAF 3.7 04:19:00 10° S 04:22:43 44° W 04:26:28 10° NNW
Cosmos 1892 Rocket 4.2 04:20:36 10° NNW 04:24:36 36° W 04:28:33 10° SSW
Cosmos 1174 3.5 04:21:51 10° NW 04:25:35 55° WSW 04:28:42 10° SSE
Cosmos 1486 Rocket 4.4 04:22:36 10° NNW 04:27:57 72° ENE 04:33:16 10° SSE
ERBS 4.5 04:25:43 10° NW 04:28:52 31° NNE 04:31:59 10° E
Gbstr 26 Del rocket 2.9 04:26:14 10° WSW 04:30:07 67° NNW 04:33:51 10° ENE
CENTAUR R/B 4.0 04:25:14 10° WNW 04:31:27 26° WSW 04:37:53 10° SSW
UNK 3.3 04:25:11 10° SW 04:31:51 51° SSE 04:34:26 10° E
Cosmos 1356 4.3 04:28:49 10° SW 04:32:06 35° WNW 04:35:26 10° N
Cosmos 2173 Rocket 4.1 04:26:13 10° S 04:32:20 84° E 04:38:34 10° N
ARIANE 5 R/B 2.9 04:28:21 10° N 04:33:10 50° WNW 04:38:00 10° SW
Cosmos 1844 Rocket 3.9 04:30:51 10° WSW 04:35:51 31° NW 04:40:51 10° NNE
Cosmos 1461 3.7 04:32:48 10° SW 04:37:23 50° NW 04:41:51 10° NNE
CZ-2D R/B 3.5 04:33:45 10° NNE 04:37:46 82° ESE 04:41:50 10° S
Cosmos 1110 Rocket 4.1 04:34:10 10° SSW 04:39:29 84° ESE 04:44:48 10° NNE
